Location: Carrick
(53.1931°N, 7.9019°W)
Time: 04:46:26
(UTC+00:00)

Daily predictions for brighter satellites

Satellite Brightness Start Highest point End
(mag) Time Altitude Azimuth Time Altitude Azimuth Time Altitude Azimuth
Cosmos 1624 Rocket 3.8 00:06:04 70° SSW 00:06:42 90° NW 00:11:55 10° NNE
Cosmos 1758 Rocket 3.8 00:02:27 10° N 00:06:37 58° ENE 00:06:37 58° ENE
Cosmos 1603 4.4 00:04:46 24° WSW 00:08:03 50° NW 00:13:36 10° NNE
ATLAS 2AS CENTAUR R/B 2.8 00:09:46 49° SSE 00:10:48 54° SE 00:17:25 10° NE
Helios 1B rocket 4.4 00:13:20 15° WNW 00:13:20 15° WNW 00:14:55 10° NW
Cosmos 1782 3.5 00:16:32 45° N 00:16:32 45° N 00:19:06 10° N
Meteor 1-20 Rocket 4.3 00:11:35 10° N 00:17:02 66° ENE 00:18:03 54° SE
ALOS 2 3.2 00:20:07 47° W 00:20:07 47° W 00:24:09 10° NNW
Meteor 1-22 4.4 00:15:25 10° NNW 00:20:48 85° ENE 00:21:31 68° SSE
SeaSat 1 3.6 00:21:51 30° WSW 00:21:51 30° WSW 00:25:54 10° NW
Cosmos 1980 Rocket 2.4 00:16:59 10° NNW 00:22:42 69° NE 00:24:19 46° ESE
Cosmos 1110 Rocket 4.1 00:23:00 59° ESE 00:23:12 59° ESE 00:28:26 10° NNE
ARIANE 5 R/B 3.7 00:27:01 33° W 00:27:01 33° W 00:30:45 10° NNW
USA 234 3.6 00:23:23 10° ENE 00:29:51 65° N 00:36:20 10° W
PSLV R/B 3.6 00:26:48 10° N 00:30:44 70° NW 00:30:44 70° NW
Cosmos 2369 4.4 00:28:17 10° NNW 00:33:51 51° NE 00:36:37 28° ESE
Cosmos 292 Rocket 4.2 00:30:03 10° NW 00:34:25 49° W 00:34:25 49° W
Cosmos 1602 Rocket 3.6 00:32:14 10° N 00:36:24 67° ENE 00:36:24 67° ENE
Cosmos 2233 Rocket 4.4 00:39:26 39° SW 00:41:25 54° WNW 00:47:34 10° N
Cosmos 968 Rocket 4.3 00:44:06 10° NW 00:48:45 37° WSW 00:48:45 37° WSW
Cosmos 2360 Rocket 4.3 00:44:22 10° NNW 00:48:58 24° NE 00:53:34 10° E
Cosmos 2333 Rocket 3.8 00:45:17 10° NNW 00:50:23 33° NE 00:55:28 10° ESE
Cosmos 2228 3.8 00:51:27 41° WNW 00:51:27 41° WNW 00:55:24 10° N
Cosmos 1933 3.8 00:53:32 54° NE 00:53:32 54° NE 00:56:38 10° NNE
Cosmos 1741 Rocket 4.2 00:47:51 10° NNW 00:53:01 52° WSW 00:53:07 52° WSW
Cosmos 1805 4.3 00:50:56 10° N 00:53:08 36° NNE 00:53:08 36° NNE
ARGOS Delta rocket 4.0 00:50:51 10° N 00:55:17 57° WNW 00:55:38 55° W
USA 281 4.2 00:51:45 10° ESE 00:57:53 44° NE 01:04:03 10° NNW
Cosmos 1626 Rocket 4.3 00:54:53 10° NNW 00:58:29 40° WNW 00:58:29 40° WNW
Cosmos 1452 Rocket 3.3 00:58:56 69° SSE 00:59:27 77° ESE 01:04:42 10° NNE
Cosmos 2082 Rocket 3.1 00:59:24 33° ESE 01:00:06 34° ESE 01:05:12 10° NE
Cosmos 1833 Rocket 2.8 01:00:04 49° WSW 01:01:30 69° NW 01:07:08 10° NNE
Nadezhda 4 Rocket 3.8 00:56:22 10° NNW 01:02:34 86° W 01:04:04 55° S
Landsat 5 3.5 00:59:41 10° NNE 01:03:47 78° ENE 01:03:47 78° ENE
Cosmos 2098 Rocket 3.7 01:03:15 58° SSE 01:04:18 73° E 01:09:53 10° NNE
Cosmos 2322 Rocket 4.0 00:59:40 10° NNW 01:04:34 29° NE 01:09:27 10° E
Cosmos 1867 3.4 01:06:15 65° S 01:06:50 72° SE 01:12:18 10° NE
Cosmos 1464 Rocket 3.9 01:13:31 54° S 01:15:04 89° WNW 01:21:14 10° N
CZ-2C R/B 3.3 01:10:17 10° N 01:15:26 63° WNW 01:16:33 51° WSW
ACS3 Solar Sail 2.4 01:10:47 10° NNE 01:16:34 46° E 01:18:33 35° SE
Cosmos 1606 Rocket 3.6 01:18:01 65° ESE 01:18:07 65° E 01:22:30 10° NNE
Cosmos 2219 Rocket 4.3 01:13:44 10° NNW 01:18:20 25° NE 01:22:56 10° E
SL-16 R/B 3.0 01:14:31 10° NNW 01:20:03 49° NE 01:24:53 13° ESE
Cosmos 2195 Rocket 4.4 01:13:55 10° N 01:20:18 89° E 01:22:15 48° S
Okean 1-7 Rocket 3.5 01:16:57 10° NNW 01:21:12 72° W 01:21:12 72° W
Cosmos 1437 Rocket 3.2 01:22:27 50° N 01:22:27 50° N 01:25:07 10° NNE
CZ-4C R/B 2.6 01:22:06 36° ESE 01:22:06 36° ESE 01:26:50 10° NE
Cosmos 1072 Rocket 4.4 01:20:23 51° SSW 01:21:59 76° WNW 01:28:14 10° N
GP-B 3.7 01:18:38 10° NNE 01:22:51 45° E 01:23:25 43° ESE
Timation 1 Rocket 4.3 01:23:15 52° SW 01:24:50 88° NW 01:30:53 10° NE
ATLAS 3B R/B 3.1 01:20:08 10° NW 01:27:37 51° WSW 01:29:24 43° SSW
Cosmos 2151 4.2 01:24:56 10° NNW 01:28:00 29° WNW 01:28:00 29° WNW
CZ-2C R/B 3.3 01:30:23 38° WSW 01:30:52 39° W 01:35:56 10° NNW
Cosmos 2058 Rocket 4.1 01:32:04 33° ESE 01:32:50 35° E 01:36:51 10° NNE
Cosmos 1076 Rocket 3.3 01:28:28 10° N 01:32:50 89° W 01:32:57 85° S
Cosmos 2026 Rocket 3.9 01:26:36 10° N 01:32:54 88° W 01:35:02 45° S
Cosmos 2237 4.1 01:30:33 10° NW 01:36:18 80° WSW 01:38:02 47° SSE
Okean 1 3.5 01:37:01 57° NE 01:37:01 57° NE 01:40:02 10° NNE
Cosmos 2034 Rocket 4.0 01:34:39 47° S 01:36:39 89° ESE 01:43:05 10° N
Cosmos 909 Rocket 4.3 01:37:59 43° S 01:39:40 56° ESE 01:45:54 10° NE
Cosmos 1302 Rocket 3.9 01:41:05 58° SW 01:42:05 81° WNW 01:47:18 10° NNE
PSLV R/B 3.8 01:40:00 10° NNE 01:43:44 69° E 01:43:44 69° E
Cosmos 1726 Rocket 3.3 01:44:06 79° SSE 01:44:20 86° E 01:48:33 10° NNE
Cosmos 1697 Rocket 4.4 01:41:52 10° WNW 01:45:05 18° W 01:45:05 18° W
Cosmos 1992 Rocket 4.0 01:45:03 54° SSE 01:46:06 69° ESE 01:51:18 10° NNE
Cosmos 1536 3.2 01:42:59 10° N 01:46:34 50° ENE 01:46:48 49° E
Cosmos 1092 Rocket 3.9 01:40:25 10° NNW 01:46:36 83° W 01:48:44 44° S
DELTA 2 DEB (DPAF) 4.2 01:43:10 10° N 01:46:21 48° NW 01:46:21 48° NW
NOSS 3-4 (A) 4.5 01:43:23 10° NW 01:49:30 52° NNE 01:56:43 10° ESE
NOSS 3-4 (C) 4.5 01:43:55 10° NW 01:50:03 52° NNE 01:57:16 10° ESE
Meteor 1-26 Rocket 4.3 01:51:49 43° SSE 01:53:27 64° E 01:58:49 10° NNE
IDEFIX/ARIANE 42P 3.3 01:50:31 10° NNE 01:55:29 44° E 01:57:22 31° SE
Cosmos 1766 3.4 01:54:25 10° N 01:57:04 55° NNE 01:57:04 55° NNE
Cosmos 1953 Rocket 3.5 01:54:36 10° NNW 01:59:01 63° W 01:59:18 61° WSW
Cosmos 2084 Rocket 4.2 01:56:10 10° NW 02:00:16 50° NNE 02:04:24 10° ESE
ATLAS 2AS CENTAUR R/B 3.2 01:57:07 21° WSW 02:01:47 57° NNW 02:08:30 10° NE
Cosmos 1707 3.3 02:03:05 39° NE 02:03:05 39° NE 02:05:14 10° NNE
Cosmos 1980 Rocket 3.3 02:01:33 10° NW 02:06:02 27° W 02:06:02 27° W
Cosmos 1975 4.0 02:05:40 10° N 02:09:03 35° ENE 02:10:36 24° ESE
Cosmos 44 Rocket 3.6 02:08:21 47° S 02:09:30 60° SE 02:14:37 10° NE
USA 234 3.3 02:06:08 10° ESE 02:12:41 80° NNE 02:19:14 10° WNW
COSMOS 2406 3.5 02:14:30 37° S 02:16:38 60° ESE 02:22:18 10° NE
MSX 4.0 02:11:24 10° NNE 02:17:08 65° ESE 02:19:47 33° S
Cosmos 2369 4.2 02:12:41 10° NW 02:17:54 38° WSW 02:18:29 37° WSW
CZ-2D R/B 4.1 02:15:55 10° NE 02:19:53 21° E 02:23:52 10° SE
SL-08 ROCKET BODY 4.3 02:14:45 10° NNW 02:20:44 79° W 02:23:39 33° S
Cosmos 2084 3.7 02:22:01 43° W 02:23:07 59° NW 02:27:14 10° NE
Cosmos 1634 Rocket 3.9 02:20:35 37° SSW 02:23:09 76° WNW 02:29:21 10° N
ADEOS Rocket 4.0 02:15:50 10° NNE 02:23:15 56° E 02:28:49 20° S
Spot 1 4.1 02:20:13 10° N 02:24:15 60° WNW 02:25:03 49° WSW
Cosmos-2242 3.0 02:28:29 51° SW 02:29:14 62° WNW 02:33:24 10° N
Cosmos 724 4.3 02:27:46 37° SW 02:30:20 86° SE 02:36:19 10° NE
Cosmos 1354 Rocket 4.3 02:26:15 10° NNW 02:31:32 67° ENE 02:36:46 10° SE
Cosmos 1503 Rocket 3.9 02:27:38 10° NNW 02:32:57 90° WSW 02:37:00 17° SSE
Cosmos 220 Rocket 4.3 02:32:09 39° SSE 02:33:12 50° ESE 02:37:07 10° NE
Cosmos 2360 Rocket 2.3 02:28:07 10° NNW 02:33:50 80° ENE 02:39:31 10° SE
Cosmos 1607 3.9 02:31:28 35° SSW 02:34:13 77° SE 02:40:29 10° NE
Cosmos 2333 Rocket 2.1 02:29:28 10° NW 02:35:07 68° WSW 02:38:59 21° SSE
FENGYUN 3A 3.8 02:29:58 10° NNE 02:35:25 68° ESE 02:38:13 29° S
Cosmos 1842 2.8 02:35:26 63° SE 02:35:41 66° E 02:38:51 10° NNE
USA 305 4.4 02:38:24 11° ENE 02:38:24 11° ENE 02:38:29 10° ENE
USA 281 3.3 02:38:17 24° S 02:42:18 56° WSW 02:48:47 10° NNW
Cosmos 2082 Rocket 2.6 02:41:13 29° WSW 02:43:57 56° NW 02:49:37 10° NNE
Cosmos 540 Rocket 4.5 02:41:18 20° SSE 02:44:18 39° ESE 02:49:05 10° NE
Cosmos 2221 2.6 02:43:58 33° SSE 02:45:40 64° E 02:49:46 10° NNE
Cosmos 1486 Rocket 4.2 02:42:36 10° NNW 02:47:38 51° WSW 02:49:47 31° SSW
Meteor 2-2 Rocket 4.3 02:45:41 33° SW 02:48:11 62° WNW 02:53:47 10° N
NPP 3.6 02:43:09 10° NNE 02:48:35 86° ESE 02:51:27 29° SSW
Meteor 2-9 Rocket 4.0 02:43:16 10° NNW 02:48:38 80° W 02:52:07 22° S
Cosmos 2278 3.7 02:43:05 10° NW 02:48:43 60° WSW 02:52:56 18° S
Resurs 1-4 Rocket 3.3 02:43:56 10° NNE 02:48:53 37° E 02:53:19 12° SSE
Cosmos 2322 Rocket 2.1 02:43:32 10° NNW 02:49:11 78° WSW 02:54:50 10° SSE
BREEZE-M DEB (TANK) 2.8 02:50:13 45° S 02:50:13 45° S 02:54:55 10° E
Cosmos 2279 Rocket 4.0 02:48:32 30° SSW 02:51:45 68° WNW 02:58:01 10° N
DNEPR-1 R/B 4.2 02:46:38 10° NW 02:51:46 80° NE 02:58:02 10° SE
Cosmos 1777 Rocket 4.2 02:53:06 10° NW 02:58:10 48° WSW 03:00:46 26° SSW
ACS3 Solar Sail 2.4 02:53:21 10° N 02:58:56 41° WNW 03:02:06 24° WSW
GP-B 4.4 02:56:07 10° NNW 02:59:38 24° WNW 03:00:35 22° W
Cosmos 1271 Rocket 2.4 03:01:02 38° S 03:02:13 77° ESE 03:05:42 10° NNE
H-2A R/B 3.4 02:58:19 10° NNE 03:03:00 35° E 03:07:45 10° SSE
Cosmos 2219 Rocket 2.2 02:57:26 10° NNW 03:03:06 83° ENE 03:08:47 10° SSE
SL-16 R/B 2.7 02:58:50 10° NW 03:04:03 39° WSW 03:06:38 25° SSW
SL-4 R/B 2.7 03:05:08 30° S 03:05:08 30° S 03:07:45 10° SE
NOSS 3-3 (A) 3.8 03:01:35 29° SW 03:04:29 79° SE 03:10:57 10° NE
Meteor 1-11 Rocket 3.8 02:59:43 10° NNW 03:05:41 86° WSW 03:11:29 10° S
Meteor 1-19 Rocket 4.2 03:04:31 22° S 03:08:09 83° E 03:13:49 10° NNE
Cosmos 1470 2.9 03:06:05 10° NNW 03:09:13 38° W 03:09:29 37° WSW
CZ-4C R/B 2.5 03:06:59 22° WSW 03:09:52 54° NNW 03:15:46 10° NE
NOAA 11 4.2 03:04:34 10° NNE 03:10:02 82° ESE 03:13:50 21° SSW
Cosmos 2180 Rocket 4.5 03:06:54 24° SSW 03:10:42 69° WNW 03:16:54 10° N
Cosmos 2058 Rocket 4.1 03:09:11 25° WSW 03:10:43 31° WNW 03:14:41 10° N
Meteor 1-14 Rocket 4.4 03:05:58 10° NNW 03:11:33 52° W 03:15:07 21° SSW
USA 290 3.5 03:10:18 22° SSE 03:11:44 34° ESE 03:14:39 10° NE
KORONAS-FOTON 4.4 03:11:46 30° W 03:12:20 32° WNW 03:15:25 10° N
Meteor 1-10 Rocket 4.3 03:11:32 18° S 03:15:51 81° E 03:21:42 10° NNE
USA 267 3.7 03:10:31 10° ENE 03:16:54 51° SE 03:21:22 20° SSW
Cosmos 2266 Rocket 4.1 03:13:07 10° NNW 03:19:05 56° W 03:23:39 17° SSW
Gbstr 26 Del rocket 3.3 03:19:26 31° SW 03:19:49 32° SSW 03:23:10 10° SE
NOSS 3-3 (C) 3.8 03:17:53 24° SW 03:21:18 85° SE 03:27:51 10° NE
Cosmos 1536 4.4 03:19:08 10° NW 03:21:19 16° W 03:21:19 16° W
Cosmos 372 Rocket 4.0 03:22:28 10° NNW 03:27:42 84° ENE 03:32:50 10° SSE
Cosmos 1812 Rocket 3.6 03:26:34 24° SSW 03:29:05 63° WNW 03:33:25 10° N
Cosmos 2333 4.3 03:24:15 10° NW 03:29:45 54° WSW 03:35:16 10° S
ISS -1.2 03:29:40 10° SSE 03:30:37 11° SE 03:31:35 10° ESE
DMSP B5D2-2 4.1 03:26:09 12° S 03:30:50 56° W 03:35:58 10° NNW
Cosmos 1655 Rocket 3.9 03:28:25 10° NNW 03:34:40 79° W 03:40:53 10° S
IDEFIX/ARIANE 42P 3.4 03:30:10 10° N 03:34:52 36° WNW 03:38:04 18° WSW
Cosmos 1707 4.4 03:34:45 11° WNW 03:35:06 11° WNW 03:36:08 10° NW
BREEZE-M DEB (TANK) 4.3 03:31:26 15° SSW 03:35:14 23° SSE 03:38:13 10° ESE
COSMOS 2441 4.5 03:30:52 10° N 03:35:36 60° WNW 03:38:53 19° SW
JB-3 4.2 03:32:10 10° SSE 03:35:45 76° ENE 03:39:22 10° N
Envisat 3.0 03:32:05 10° NNE 03:37:11 87° WNW 03:41:31 14° SSW
SWARM A 4.2 03:34:29 10° N 03:37:42 61° W 03:39:45 20° SSW
Cosmos 2084 Rocket 3.9 03:35:04 10° WNW 03:38:56 36° SW 03:42:49 10° SSE
Meteor 2-20 Rocket 4.4 03:33:06 11° S 03:38:58 90° ESE 03:44:56 10° NNE
Aureole 1 Rocket 3.1 03:35:18 10° NNW 03:39:17 61° WSW 03:44:17 10° SSE
Meteor 2-4 Rocket 4.0 03:35:00 10° S 03:40:17 63° E 03:45:34 10° NNE
NOSS 3-4 (A) 3.8 03:34:10 10° NW 03:40:41 64° SW 03:48:23 10° SSE
NOSS 3-4 (C) 3.8 03:34:42 10° NW 03:41:15 64° SW 03:48:58 10° SSE
Cosmos 1975 3.9 03:40:59 10° NW 03:43:51 22° W 03:44:51 20° WSW
H-2A R/B 2.3 03:41:22 15° S 03:44:11 46° W 03:47:40 10° NNW
Iridium 4 Rocket 3.5 03:42:31 16° SSW 03:46:10 55° W 03:51:14 10° N
Cosmos 44 Rocket 4.4 03:46:54 13° W 03:51:12 40° NNW 03:56:07 10° NE
ADEOS II 2.2 03:46:08 10° NNE 03:51:24 76° ESE 03:56:38 10° SSW
Cosmos 1842 Rocket 4.2 03:47:15 10° S 03:51:26 55° E 03:55:41 10° NNE
Meteor 1-27 Rocket 3.8 03:45:55 10° SSW 03:51:49 84° WNW 03:57:46 10° NNE
BREEZE-M DEB (TANK) 3.6 03:49:45 18° WSW 03:51:50 33° SSW 03:58:57 10° SE
BREEZE-M DEB (TANK) 2.4 03:46:56 11° W 03:52:07 78° S 03:54:25 10° E
Cosmos 1238 Rocket 1.9 03:50:21 17° SSW 03:52:24 78° W 03:55:29 10° N
ALOS 2.2 03:48:40 10° NNE 03:53:14 79° WNW 03:57:33 11° SSW
ATLAS 2AS CENTAUR R/B 4.0 03:47:44 10° WNW 03:53:57 35° N 04:00:07 10° ENE
USA 234 3.4 03:49:36 10° SE 03:55:58 53° SW 04:02:22 10° WNW
Cosmos 1763 Rocket 3.8 03:53:11 16° SW 03:57:21 58° WNW 04:02:37 10° NNE
CZ-2D R/B 2.1 03:55:09 10° NNE 04:00:24 74° WNW 04:05:41 10° SSW
Sich 1 3.2 03:56:53 10° N 04:01:04 71° ENE 04:05:11 10° SSE
COSMOS 2406 4.2 03:56:31 13° WSW 04:01:15 36° NW 04:06:33 10° NNE
USA 305 1.1 04:00:35 16° WNW 04:01:55 45° N 04:03:02 10° ENE
Okean 3 Rocket 3.9 03:57:36 10° N 04:02:03 72° ENE 04:06:31 10° SSE
COSMOS 2428 2.9 03:56:39 10° NNW 04:02:26 82° ENE 04:08:08 10° SSE
Cosmos 1758 4.2 03:59:10 10° N 04:02:43 46° ENE 04:06:14 10° SSE
Cosmos 841 Rocket 4.2 03:59:49 10° S 04:04:48 53° ESE 04:09:51 10° NNE
SL-16 R/B 2.7 04:00:22 10° SSE 04:06:38 84° ENE 04:12:58 10° NNW
ADEOS Rocket 4.1 04:01:33 10° N 04:08:34 46° WNW 04:15:45 10° SW
Cosmos 1898 Rocket 3.5 04:03:58 10° NNW 04:09:04 63° WSW 04:14:09 10° S
Cosmos 1805 Rocket 4.4 04:06:29 10° N 04:10:50 55° ENE 04:15:08 10° SSE
Cosmos 1937 Rocket 3.4 04:08:19 10° NNW 04:13:33 76° WSW 04:18:41 10° SSE
Cosmos 2360 Rocket 3.3 04:12:57 10° NW 04:17:13 22° WSW 04:21:27 10° SSW
Cosmos 2333 Rocket 3.9 04:15:43 10° WNW 04:18:21 13° W 04:20:55 10° WSW
H-2A R/B 2.8 04:16:36 10° NNE 04:20:32 49° E 04:24:24 10° S
SL-19 R/B 4.4 04:16:42 10° NNE 04:22:18 69° WNW 04:28:11 10° SSW
Cosmos 2221 4.2 04:20:20 10° WSW 04:23:08 17° WNW 04:25:57 10° NNW
Meteor 2-10 Rocket 3.5 04:18:54 10° NNW 04:23:56 62° W 04:29:06 10° S
Cosmos 540 Rocket 4.2 04:21:00 10° SW 04:25:47 41° NW 04:30:40 10° NNE
Meteor 1-18 Rocket 4.4 04:20:18 10° S 04:25:52 80° E 04:31:26 10° NNE
Resurs 1-4 Rocket 2.7 04:23:43 10° N 04:28:43 43° WNW 04:33:41 10° SW
Cosmos 2082 Rocket 4.1 04:25:12 10° WNW 04:29:18 20° NNW 04:33:27 10° NNE
Cosmos 1340 Rocket 4.1 04:26:48 10° N 04:30:24 42° ENE 04:33:59 10° SE
In-Cosmos 22 4.5 04:26:05 10° S 04:31:20 68° E 04:36:42 10° NNE
Cosmos 468 Rocket 4.3 04:27:06 10° SW 04:32:18 57° WNW 04:37:33 10° NNE
Cosmos 2322 Rocket 3.7 04:29:01 10° WNW 04:32:19 16° W 04:35:37 10° SW
Cosmos 1553 Rocket 4.0 04:27:20 10° SSW 04:33:31 77° WNW 04:39:53 10° N
CZ-2C R/B 3.6 04:29:56 10° NNE 04:34:37 43° E 04:39:09 10° S
Cosmos 1709 Rocket 4.3 04:33:38 10° N 04:39:46 76° ENE 04:45:53 10° SSE
ACS3 Solar Sail 3.8 04:38:13 10° NNW 04:39:53 11° NW 04:41:32 10° WNW
BREEZE-M DEB (TANK) 3.9 04:34:27 10° WNW 04:43:03 32° SW 04:46:20 10° SSE
